When you browse on this site, cookies collect data to enhance your experience and personalize the content and advertising you see.
Visit our Privacy Policy to learn more. By continuing to use the site, you agree to this use of cookies and data.
  • In Sweden
  • List of Countries
  • For 7 days
  • Water Temperature
  • Weather Map
  • Weather Widgets
  • user-avatar
    Login

    Hourly Weather Kaba

    Today, 17 February, Monday

    Time Temperature Precipitation Wind Pressure Humidity
    00:00 +4°C° 0 mm 3 mps 763 mmHg 79%
    01:00 +4°C° 0 mm 3 mps 762 mmHg 80%
    02:00 +3°C° 0 mm 3 mps 762 mmHg 80%
    03:00 +3°C° 0 mm 3 mps 761 mmHg 80%
    04:00 +3°C° 0 mm 3 mps 761 mmHg 80%
    05:00 +3°C° 0 mm 3 mps 761 mmHg 81%
    06:00 +3°C° 0 mm 3 mps 761 mmHg 81%
    07:00 +2°C° 0 mm 3 mps 761 mmHg 81%
    08:00 +4°C° 0 mm 3 mps 761 mmHg 77%
    09:00 +5°C° 0 mm 3 mps 761 mmHg 73%
    10:00 +8°C° 0 mm 3 mps 760 mmHg 69%
    11:00 +9°C° 0 mm 3 mps 760 mmHg 66%
    12:00 +10°C° 0 mm 3 mps 760 mmHg 63%
    13:00 +11°C° 0 mm 3 mps 760 mmHg 60%
    14:00 +12°C° 0 mm 2 mps 759 mmHg 62%
    15:00 +12°C° 0 mm 2 mps 759 mmHg 65%
    16:00 +10°C° 0 mm 2 mps 758 mmHg 68%
    17:00 +10°C° 0 mm 2 mps 758 mmHg 72%
    18:00 +9°C° 0 mm 2 mps 758 mmHg 75%
    19:00 +8°C° 0 mm 3 mps 758 mmHg 79%
    20:00 +7°C° 0 mm 3 mps 758 mmHg 80%
    21:00 +7°C° 0 mm 3 mps 758 mmHg 80%
    22:00 +7°C° 0 mm 3 mps 758 mmHg 81%
    23:00 +7°C° 0 mm 3 mps 758 mmHg 82%

    Tomorrow, 18 February, Tuesday

    Time Temperature Precipitation Wind Pressure Humidity
    00:00 +5°C° 0 mm 3 mps 758 mmHg 83%
    01:00 +5°C° 0 mm 3 mps 758 mmHg 85%
    02:00 +5°C° 0 mm 3 mps 757 mmHg 85%
    03:00 +5°C° 0 mm 3 mps 757 mmHg 86%
    04:00 +7°C° 0 mm 3 mps 757 mmHg 87%
    05:00 +6°C° 0.1 mm 2 mps 757 mmHg 89%
    06:00 +6°C° 0.1 mm 2 mps 758 mmHg 90%
    07:00 +6°C° 0.1 mm 2 mps 758 mmHg 92%
    08:00 +7°C° 0 mm 2 mps 759 mmHg 89%
    09:00 +8°C° 0 mm 2 mps 759 mmHg 86%
    10:00 +8°C° 0 mm 2 mps 759 mmHg 83%
    11:00 +9°C° 0 mm 3 mps 759 mmHg 75%
    12:00 +11°C° 0 mm 3 mps 760 mmHg 67%
    13:00 +12°C° 0 mm 4 mps 760 mmHg 59%
    14:00 +12°C° 0 mm 4 mps 760 mmHg 59%
    15:00 +11°C° 0 mm 4 mps 759 mmHg 59%
    16:00 +11°C° 0 mm 3 mps 759 mmHg 58%
    17:00 +9°C° 0 mm 3 mps 760 mmHg 61%
    18:00 +8°C° 0 mm 3 mps 760 mmHg 64%
    19:00 +7°C° 0 mm 3 mps 761 mmHg 67%
    20:00 +7°C° 0 mm 3 mps 761 mmHg 68%
    21:00 +5°C° 0 mm 3 mps 761 mmHg 70%
    22:00 +4°C° 0 mm 3 mps 761 mmHg 71%
    23:00 +4°C° 0 mm 3 mps 761 mmHg 73%

    Day after tomorrow, 19 February, Wednesday

    Time Temperature Precipitation Wind Pressure Humidity
    00:00 +3°C° 0 mm 3 mps 761 mmHg 75%
    01:00 +4°C° 0 mm 2 mps 761 mmHg 76%
    02:00 +4°C° 0 mm 2 mps 760 mmHg 77%
    03:00 +3°C° 0 mm 2 mps 760 mmHg 78%
    04:00 +4°C° 0 mm 1 mps 759 mmHg 79%
    05:00 +4°C° 0 mm 1 mps 759 mmHg 79%
    06:00 +4°C° 0 mm 1 mps 759 mmHg 80%
    07:00 +3°C° 0 mm 0 mps 759 mmHg 80%
    08:00 +5°C° 0 mm 1 mps 759 mmHg 75%
    09:00 +6°C° 0 mm 1 mps 758 mmHg 69%
    10:00 +7°C° 0 mm 2 mps 758 mmHg 64%
    11:00 +7°C° 0 mm 2 mps 758 mmHg 59%
    12:00 +8°C° 0 mm 2 mps 757 mmHg 55%
    13:00 +9°C° 0 mm 3 mps 757 mmHg 50%
    14:00 +9°C° 0 mm 3 mps 756 mmHg 52%
    15:00 +9°C° 0 mm 2 mps 756 mmHg 55%
    16:00 +8°C° 0 mm 2 mps 755 mmHg 57%
    17:00 +8°C° 0 mm 2 mps 756 mmHg 61%
    18:00 +7°C° 0 mm 2 mps 756 mmHg 65%
    19:00 +6°C° 0 mm 2 mps 756 mmHg 69%
    20:00 +6°C° 0.1 mm 2 mps 756 mmHg 74%
    21:00 +6°C° 0.1 mm 2 mps 756 mmHg 78%
    22:00 +6°C° 0.1 mm 2 mps 755 mmHg 82%
    23:00 +4°C° 0 mm 3 mps 755 mmHg 81%

    20 February, Thursday

    Time Temperature Precipitation Wind Pressure Humidity
    00:00 +4°C° 0 mm 3 mps 755 mmHg 80%
    01:00 +4°C° 0 mm 4 mps 755 mmHg 79%
    02:00 +3°C° 0 mm 4 mps 755 mmHg 80%
    03:00 +3°C° 0 mm 4 mps 755 mmHg 81%
    04:00 +3°C° 0 mm 4 mps 755 mmHg 82%
    05:00 +3°C° 0 mm 4 mps 755 mmHg 81%
    06:00 +3°C° 0 mm 3 mps 756 mmHg 79%
    07:00 +3°C° 0 mm 3 mps 756 mmHg 78%
    08:00 +4°C° 0 mm 4 mps 756 mmHg 71%
    09:00 +3°C° 0 mm 5 mps 757 mmHg 64%
    10:00 +5°C° 0 mm 5 mps 757 mmHg 57%
    11:00 +6°C° 0 mm 5 mps 757 mmHg 55%
    12:00 +6°C° 0 mm 5 mps 757 mmHg 54%
    13:00 +7°C° 0 mm 5 mps 757 mmHg 52%
    14:00 +6°C° 0 mm 4 mps 757 mmHg 53%
    15:00 +6°C° 0 mm 4 mps 757 mmHg 54%
    16:00 +7°C° 0 mm 3 mps 758 mmHg 55%
    17:00 +5°C° 0 mm 3 mps 758 mmHg 59%
    18:00 +5°C° 0 mm 2 mps 759 mmHg 64%
    19:00 +4°C° 0 mm 2 mps 759 mmHg 68%
    20:00 +3°C° 0 mm 2 mps 760 mmHg 70%
    21:00 +3°C° 0 mm 2 mps 760 mmHg 71%
    22:00 +3°C° 0 mm 1 mps 760 mmHg 72%
    23:00 +3°C° 0 mm 1 mps 760 mmHg 73%

    21 February, Friday

    Time Temperature Precipitation Wind Pressure Humidity
    00:00 +2°C° 0 mm 0 mps 760 mmHg 73%
    01:00 +1°C° 0 mm 0 mps 760 mmHg 73%
    02:00 +1°C° 0 mm 0 mps 760 mmHg 73%
    03:00 +1°C° 0 mm 0 mps 760 mmHg 73%
    04:00 +2°C° 0 mm 1 mps 761 mmHg 72%
    05:00 +2°C° 0 mm 1 mps 761 mmHg 74%
    06:00 +2°C° 0 mm 1 mps 761 mmHg 75%
    07:00 +1°C° 0 mm 2 mps 761 mmHg 76%
    14:00 +7°C° 0 mm 5 mps 761 mmHg 53%
    15:00 +7°C° 0 mm 5 mps 761 mmHg 54%
    16:00 +7°C° 0 mm 4 mps 761 mmHg 55%
    17:00 +6°C° 0 mm 5 mps 761 mmHg 62%
    18:00 +5°C° 0 mm 5 mps 761 mmHg 69%
    19:00 +5°C° 0 mm 5 mps 761 mmHg 76%
    20:00 +3°C° 0 mm 5 mps 762 mmHg 75%
    21:00 +4°C° 0 mm 4 mps 762 mmHg 74%
    22:00 +3°C° 0 mm 3 mps 763 mmHg 73%
    23:00 +3°C° 0 mm 3 mps 763 mmHg 75%

    22 February, Saturday

    Time Temperature Precipitation Wind Pressure Humidity
    00:00 +2°C° 0 mm 3 mps 764 mmHg 76%
    01:00 +2°C° 0 mm 3 mps 764 mmHg 78%
    02:00 +2°C° 0 mm 2 mps 764 mmHg 78%
    03:00 +2°C° 0 mm 2 mps 764 mmHg 77%
    04:00 +2°C° 0 mm 2 mps 764 mmHg 77%
    05:00 +2°C° 0 mm 2 mps 765 mmHg 77%
    06:00 +2°C° 0 mm 2 mps 765 mmHg 76%
    07:00 +2°C° 0 mm 2 mps 765 mmHg 75%
    08:00 +3°C° 0 mm 2 mps 765 mmHg 71%
    09:00 +4°C° 0 mm 3 mps 765 mmHg 66%
    10:00 +5°C° 0 mm 4 mps 765 mmHg 62%
    11:00 +6°C° 0 mm 4 mps 765 mmHg 59%
    12:00 +7°C° 0 mm 5 mps 765 mmHg 57%
    13:00 +8°C° 0 mm 6 mps 764 mmHg 54%
    14:00 +8°C° 0 mm 5 mps 764 mmHg 57%
    15:00 +7°C° 0 mm 5 mps 764 mmHg 59%
    16:00 +7°C° 0 mm 4 mps 763 mmHg 61%
    17:00 +7°C° 0 mm 4 mps 763 mmHg 61%
    18:00 +7°C° 0 mm 5 mps 763 mmHg 62%
    19:00 +6°C° 0 mm 5 mps 763 mmHg 63%
    20:00 +6°C° 0 mm 5 mps 763 mmHg 62%
    21:00 +5°C° 0 mm 6 mps 763 mmHg 61%
    22:00 +5°C° 0 mm 6 mps 763 mmHg 61%
    23:00 +5°C° 0 mm 6 mps 763 mmHg 62%
    Show more